History Data

Date (GMT-7:00) CPM ACPM uSv/h Latitude Longitude Altitude CO CO2 TVOC HCHO Air Pressure Temperature Humidity Type
2026-01-16 22:03:02 19 17.00 0.095000 41.649648 41.62752893 0 0 0 0 0 0 0 0 STD5.60
2026-01-16 21:57:59 12 16.20 0.060000 41.649648 41.62752893 0 0 0 0 0 0 0 0 STD5.60
2026-01-16 21:52:57 13 15.30 0.065000 41.649648 41.62752893 0 0 0 0 0 0 0 0 STD5.60
2026-01-16 21:47:55 19 16.30 0.095000 41.649648 41.62752893 0 0 0 0 0 0 0 0 STD5.60
2026-01-16 21:42:53 16 16.80 0.080000 41.649648 41.62752893 0 0 0 0 0 0 0 0 STD5.60
2026-01-16 21:37:51 14 18.30 0.070000 41.649648 41.62752893 0 0 0 0 0 0 0 0 STD5.60
2026-01-16 21:32:49 14 18.80 0.070000 41.649648 41.62752893 0 0 0 0 0 0 0 0 STD5.60
2026-01-16 21:27:45 20 16.40 0.100000 41.649648 41.62752893 0 0 0 0 0 0 0 0 STD5.60
2026-01-16 21:22:44 12 17.10 0.060000 41.649648 41.62752893 0 0 0 0 0 0 0 0 STD5.60
2026-01-16 21:17:41 15 21.00 0.075000 41.649648 41.62752893 0 0 0 0 0 0 0 0 STD5.60
2026-01-16 21:12:39 28 19.80 0.140000 41.649648 41.62752893 0 0 0 0 0 0 0 0 STD5.60
2026-01-16 21:07:37 16 17.20 0.080000 41.649648 41.62752893 0 0 0 0 0 0 0 0 STD5.60
2026-01-16 21:02:35 15 17.30 0.075000 41.649648 41.62752893 0 0 0 0 0 0 0 0 STD5.60
2026-01-16 20:57:33 15 18.80 0.075000 41.649648 41.62752893 0 0 0 0 0 0 0 0 STD5.60
2026-01-16 20:52:31 18 18.20 0.090000 41.649648 41.62752893 0 0 0 0 0 0 0 0 STD5.60
2026-01-16 20:47:29 20 16.20 0.100000 41.649648 41.62752893 0 0 0 0 0 0 0 0 STD5.60
2026-01-16 20:42:27 13 15.60 0.065000 41.649648 41.62752893 0 0 0 0 0 0 0 0 STD5.60
2026-01-16 20:37:24 10 16.70 0.050000 41.649648 41.62752893 0 0 0 0 0 0 0 0 STD5.60
2026-01-16 20:32:23 13 18.50 0.065000 41.649648 41.62752893 0 0 0 0 0 0 0 0 STD5.60
2026-01-16 20:27:18 17 18.00 0.085000 41.649648 41.62752893 0 0 0 0 0 0 0 0 STD5.60
2026-01-16 20:22:16 20 18.00 0.100000 41.649648 41.62752893 0 0 0 0 0 0 0 0 STD5.60
2026-01-16 20:17:14 14 16.60 0.070000 41.649648 41.62752893 0 0 0 0 0 0 0 0 STD5.60
2026-01-16 20:12:11 20 17.50 0.100000 41.649648 41.62752893 0 0 0 0 0 0 0 0 STD5.60
2026-01-16 20:07:10 19 19.40 0.095000 41.649648 41.62752893 0 0 0 0 0 0 0 0 STD5.60
2026-01-16 20:02:08 17 18.10 0.085000 41.649648 41.62752893 0 0 0 0 0 0 0 0 STD5.60
2026-01-16 19:57:06 15 18.80 0.075000 41.649648 41.62752893 0 0 0 0 0 0 0 0 STD5.60
2026-01-16 19:52:04 21 19.20 0.105000 41.649648 41.62752893 0 0 0 0 0 0 0 0 STD5.60
2026-01-16 19:47:02 19 17.50 0.095000 41.649648 41.62752893 0 0 0 0 0 0 0 0 STD5.60
2026-01-16 19:42:00 19 16.50 0.095000 41.649648 41.62752893 0 0 0 0 0 0 0 0 STD5.60
2026-01-16 19:36:58 13 16.50 0.065000 41.649648 41.62752893 0 0 0 0 0 0 0 0 STD5.60
2026-01-16 19:31:56 14 16.00 0.070000 41.649648 41.62752893 0 0 0 0 0 0 0 0 STD5.60
2026-01-16 19:26:52 19 17.50 0.095000 41.649648 41.62752893 0 0 0 0 0 0 0 0 STD5.60
2026-01-16 19:21:50 21 20.20 0.105000 41.649648 41.62752893 0 0 0 0 0 0 0 0 STD5.60
2026-01-16 19:16:47 20 18.50 0.100000 41.649648 41.62752893 0 0 0 0 0 0 0 0 STD5.60
2026-01-16 19:11:46 15 15.70 0.075000 41.649648 41.62752893 0 0 0 0 0 0 0 0 STD5.60
2026-01-16 19:06:44 16 19.90 0.080000 41.649648 41.62752893 0 0 0 0 0 0 0 0 STD5.60
2026-01-16 19:01:42 26 21.80 0.130000 41.649648 41.62752893 0 0 0 0 0 0 0 0 STD5.60
2026-01-16 18:56:39 18 18.80 0.090000 41.649648 41.62752893 0 0 0 0 0 0 0 0 STD5.60
2026-01-16 18:51:38 22 17.30 0.110000 41.649648 41.62752893 0 0 0 0 0 0 0 0 STD5.60
2026-01-16 18:46:35 9 15.90 0.045000 41.649648 41.62752893 0 0 0 0 0 0 0 0 STD5.60
2026-01-16 18:41:33 17 17.50 0.085000 41.649648 41.62752893 0 0 0 0 0 0 0 0 STD5.60
2026-01-16 18:36:32 13 18.90 0.065000 41.649648 41.62752893 0 0 0 0 0 0 0 0 STD5.60
2026-01-16 18:31:29 24 18.80 0.120000 41.649648 41.62752893 0 0 0 0 0 0 0 0 STD5.60
2026-01-16 18:26:25 20 17.30 0.100000 41.649648 41.62752893 0 0 0 0 0 0 0 0 STD5.60
2026-01-16 18:21:23 23 16.50 0.115000 41.649648 41.62752893 0 0 0 0 0 0 0 0 STD5.60
2026-01-16 18:16:21 18 17.20 0.090000 41.649648 41.62752893 0 0 0 0 0 0 0 0 STD5.60
2026-01-16 18:11:19 16 19.00 0.080000 41.649648 41.62752893 0 0 0 0 0 0 0 0 STD5.60
2026-01-16 18:06:18 16 18.40 0.080000 41.649648 41.62752893 0 0 0 0 0 0 0 0 STD5.60
2026-01-16 18:01:15 22 17.10 0.110000 41.649648 41.62752893 0 0 0 0 0 0 0 0 STD5.60
2026-01-16 17:56:12 21 17.40 0.105000 41.649648 41.62752893 0 0 0 0 0 0 0 0 STD5.60
2026-01-16 17:51:10 26 18.50 0.130000 41.649648 41.62752893 0 0 0 0 0 0 0 0 STD5.60
2026-01-16 17:46:08 16 18.40 0.080000 41.649648 41.62752893 0 0 0 0 0 0 0 0 STD5.60
2026-01-16 17:41:06 14 17.20 0.070000 41.649648 41.62752893 0 0 0 0 0 0 0 0 STD5.60
2026-01-16 17:36:04 13 18.30 0.065000 41.649648 41.62752893 0 0 0 0 0 0 0 0 STD5.60
2026-01-16 17:31:03 22 19.70 0.110000 41.649648 41.62752893 0 0 0 0 0 0 0 0 STD5.60
2026-01-16 17:25:58 22 18.60 0.110000 41.649648 41.62752893 0 0 0 0 0 0 0 0 STD5.60
2026-01-16 17:20:57 21 19.20 0.105000 41.649648 41.62752893 0 0 0 0 0 0 0 0 STD5.60
2026-01-16 17:15:54 24 18.40 0.120000 41.649648 41.62752893 0 0 0 0 0 0 0 0 STD5.60
2026-01-16 17:10:53 18 18.30 0.090000 41.649648 41.62752893 0 0 0 0 0 0 0 0 STD5.60
2026-01-16 17:05:50 22 20.60 0.110000 41.649648 41.62752893 0 0 0 0 0 0 0 0 STD5.60
2026-01-16 17:00:47 30 20.10 0.150000 41.649648 41.62752893 0 0 0 0 0 0 0 0 STD5.60
2026-01-16 16:55:46 22 19.00 0.110000 41.649648 41.62752893 0 0 0 0 0 0 0 0 STD5.60
2026-01-16 16:50:43 20 18.50 0.100000 41.649648 41.62752893 0 0 0 0 0 0 0 0 STD5.60
2026-01-16 16:45:41 17 18.00 0.085000 41.649648 41.62752893 0 0 0 0 0 0 0 0 STD5.60
2026-01-16 16:40:39 23 16.60 0.115000 41.649648 41.62752893 0 0 0 0 0 0 0 0 STD5.60
2026-01-16 16:35:37 17 17.10 0.085000 41.649648 41.62752893 0 0 0 0 0 0 0 0 STD5.60
2026-01-16 16:30:34 17 18.90 0.085000 41.649648 41.62752893 0 0 0 0 0 0 0 0 STD5.60
2026-01-16 16:25:30 17 17.40 0.085000 41.649648 41.62752893 0 0 0 0 0 0 0 0 STD5.60
2026-01-16 16:20:28 15 16.50 0.075000 41.649648 41.62752893 0 0 0 0 0 0 0 0 STD5.60
2026-01-16 16:15:26 18 17.70 0.090000 41.649648 41.62752893 0 0 0 0 0 0 0 0 STD5.60
2026-01-16 16:10:24 16 18.60 0.080000 41.649648 41.62752893 0 0 0 0 0 0 0 0 STD5.60
2026-01-16 16:05:23 21 17.60 0.105000 41.649648 41.62752893 0 0 0 0 0 0 0 0 STD5.60
2026-01-16 16:00:20 15 17.40 0.075000 41.649648 41.62752893 0 0 0 0 0 0 0 0 STD5.60
2026-01-16 15:55:18 15 18.80 0.075000 41.649648 41.62752893 0 0 0 0 0 0 0 0 STD5.60
2026-01-16 15:50:16 25 16.90 0.125000 41.649648 41.62752893 0 0 0 0 0 0 0 0 STD5.60
2026-01-16 15:45:14 9 17.40 0.045000 41.649648 41.62752893 0 0 0 0 0 0 0 0 STD5.60
2026-01-16 15:40:12 18 18.00 0.090000 41.649648 41.62752893 0 0 0 0 0 0 0 0 STD5.60
2026-01-16 15:35:10 17 17.30 0.085000 41.649648 41.62752893 0 0 0 0 0 0 0 0 STD5.60
2026-01-16 15:30:04 17 16.40 0.085000 41.649648 41.62752893 0 0 0 0 0 0 0 0 STD5.60
2026-01-16 15:25:03 15 16.20 0.075000 41.649648 41.62752893 0 0 0 0 0 0 0 0 STD5.60
2026-01-16 15:20:01 26 15.80 0.130000 41.649648 41.62752893 0 0 0 0 0 0 0 0 STD5.60
2026-01-16 15:14:58 9 15.20 0.045000 41.649648 41.62752893 0 0 0 0 0 0 0 0 STD5.60
2026-01-16 15:09:56 11 16.70 0.055000 41.649648 41.62752893 0 0 0 0 0 0 0 0 STD5.60
2026-01-16 15:04:55 17 15.40 0.085000 41.649648 41.62752893 0 0 0 0 0 0 0 0 STD5.60
2026-01-16 14:59:52 13 15.60 0.065000 41.649648 41.62752893 0 0 0 0 0 0 0 0 STD5.60
2026-01-16 14:54:50 25 18.10 0.125000 41.649648 41.62752893 0 0 0 0 0 0 0 0 STD5.60
2026-01-16 14:49:48 22 17.70 0.110000 41.649648 41.62752893 0 0 0 0 0 0 0 0 STD5.60
2026-01-16 14:44:46 13 15.60 0.065000 41.649648 41.62752893 0 0 0 0 0 0 0 0 STD5.60
2026-01-16 14:39:44 17 17.00 0.085000 41.649648 41.62752893 0 0 0 0 0 0 0 0 STD5.60
2026-01-16 14:34:42 13 16.20 0.065000 41.649648 41.62752893 0 0 0 0 0 0 0 0 STD5.60
2026-01-16 14:29:38 23 17.30 0.115000 41.649648 41.62752893 0 0 0 0 0 0 0 0 STD5.60
2026-01-16 14:24:36 11 19.90 0.055000 41.649648 41.62752893 0 0 0 0 0 0 0 0 STD5.60
2026-01-16 14:19:34 21 18.60 0.105000 41.649648 41.62752893 0 0 0 0 0 0 0 0 STD5.60
2026-01-16 14:14:32 15 15.90 0.075000 41.649648 41.62752893 0 0 0 0 0 0 0 0 STD5.60
2026-01-16 14:09:30 20 15.90 0.100000 41.649648 41.62752893 0 0 0 0 0 0 0 0 STD5.60
2026-01-16 14:04:28 21 17.80 0.105000 41.649648 41.62752893 0 0 0 0 0 0 0 0 STD5.60
2026-01-16 13:59:26 24 19.90 0.120000 41.649648 41.62752893 0 0 0 0 0 0 0 0 STD5.60
2026-01-16 13:54:23 33 19.40 0.165000 41.649648 41.62752893 0 0 0 0 0 0 0 0 STD5.60
2026-01-16 13:49:21 13 17.50 0.065000 41.649648 41.62752893 0 0 0 0 0 0 0 0 STD5.60
2026-01-16 13:44:19 18 19.50 0.090000 41.649648 41.62752893 0 0 0 0 0 0 0 0 STD5.60
2026-01-16 13:39:17 23 18.20 0.115000 41.649648 41.62752893 0 0 0 0 0 0 0 0 STD5.60
2026-01-16 13:34:16 17 15.50 0.085000 41.649648 41.62752893 0 0 0 0 0 0 0 0 STD5.60
2026-01-16 13:29:12 9 16.70 0.045000 41.649648 41.62752893 0 0 0 0 0 0 0 0 STD5.60
2026-01-16 13:24:10 18 17.20 0.090000 41.649648 41.62752893 0 0 0 0 0 0 0 0 STD5.60
2026-01-16 13:19:08 22 15.90 0.110000 41.649648 41.62752893 0 0 0 0 0 0 0 0 STD5.60
2026-01-16 13:14:07 20 15.30 0.100000 41.649648 41.62752893 0 0 0 0 0 0 0 0 STD5.60
2026-01-16 13:09:04 16 16.80 0.080000 41.649648 41.62752893 0 0 0 0 0 0 0 0 STD5.60
2026-01-16 13:04:02 13 17.70 0.065000 41.649648 41.62752893 0 0 0 0 0 0 0 0 STD5.60
2026-01-16 12:59:01 20 17.80 0.100000 41.649648 41.62752893 0 0 0 0 0 0 0 0 STD5.60
2026-01-16 12:53:58 20 18.00 0.100000 41.649648 41.62752893 0 0 0 0 0 0 0 0 STD5.60
2026-01-16 12:48:59 17 19.60 0.085000 41.649648 41.62752893 0 0 0 0 0 0 0 0 STD5.60
2026-01-16 12:43:54 29 19.80 0.145000 41.649648 41.62752893 0 0 0 0 0 0 0 0 STD5.60
2026-01-16 12:38:52 24 17.80 0.120000 41.649648 41.62752893 0 0 0 0 0 0 0 0 STD5.60
2026-01-16 12:33:50 14 19.10 0.070000 41.649648 41.62752893 0 0 0 0 0 0 0 0 STD5.60
2026-01-16 12:28:46 19 18.20 0.095000 41.649648 41.62752893 0 0 0 0 0 0 0 0 STD5.60
2026-01-16 12:23:44 17 15.10 0.085000 41.649648 41.62752893 0 0 0 0 0 0 0 0 STD5.60
2026-01-16 12:18:42 13 15.30 0.065000 41.649648 41.62752893 0 0 0 0 0 0 0 0 STD5.60
2026-01-16 12:13:40 26 16.30 0.130000 41.649648 41.62752893 0 0 0 0 0 0 0 0 STD5.60
2026-01-16 12:08:38 18 17.70 0.090000 41.649648 41.62752893 0 0 0 0 0 0 0 0 STD5.60
2026-01-16 12:03:36 18 18.70 0.090000 41.649648 41.62752893 0 0 0 0 0 0 0 0 STD5.60
2026-01-16 11:58:34 20 18.20 0.100000 41.649648 41.62752893 0 0 0 0 0 0 0 0 STD5.60
2026-01-16 11:53:31 22 17.50 0.110000 41.649648 41.62752893 0 0 0 0 0 0 0 0 STD5.60
2026-01-16 11:48:30 20 17.40 0.100000 41.649648 41.62752893 0 0 0 0 0 0 0 0 STD5.60
2026-01-16 11:43:28 16 18.20 0.080000 41.649648 41.62752893 0 0 0 0 0 0 0 0 STD5.60
2026-01-16 11:38:25 20 16.40 0.100000 41.649648 41.62752893 0 0 0 0 0 0 0 0 STD5.60
2026-01-16 11:33:24 15 7.30 0.075000 41.649648 41.62752893 0 0 0 0 0 0 0 0 STD5.60
2026-01-16 11:28:19 15 17.60 0.075000 41.649648 41.62752893 0 0 0 0 0 0 0 0 STD5.60
2026-01-16 11:23:17 18 17.00 0.090000 41.649648 41.62752893 0 0 0 0 0 0 0 0 STD5.60
2026-01-16 11:18:15 17 16.90 0.085000 41.649648 41.62752893 0 0 0 0 0 0 0 0 STD5.60
2026-01-16 11:13:14 19 17.10 0.095000 41.649648 41.62752893 0 0 0 0 0 0 0 0 STD5.60
2026-01-16 11:08:11 15 18.70 0.075000 41.649648 41.62752893 0 0 0 0 0 0 0 0 STD5.60
2026-01-16 11:03:10 26 18.40 0.130000 41.649648 41.62752893 0 0 0 0 0 0 0 0 STD5.60
2026-01-16 10:58:07 12 15.40 0.060000 41.649648 41.62752893 0 0 0 0 0 0 0 0 STD5.60
2026-01-16 10:53:05 11 14.70 0.055000 41.649648 41.62752893 0 0 0 0 0 0 0 0 STD5.60
2026-01-16 10:48:03 22 17.20 0.110000 41.649648 41.62752893 0 0 0 0 0 0 0 0 STD5.60
2026-01-16 10:43:01 21 17.70 0.105000 41.649648 41.62752893 0 0 0 0 0 0 0 0 STD5.60
2026-01-16 10:37:59 12 17.50 0.060000 41.649648 41.62752893 0 0 0 0 0 0 0 0 STD5.60
2026-01-16 10:32:57 20 16.90 0.100000 41.649648 41.62752893 0 0 0 0 0 0 0 0 STD5.60
2026-01-16 10:27:52 13 15.70 0.065000 41.649648 41.62752893 0 0 0 0 0 0 0 0 STD5.60
2026-01-16 10:22:50 15 17.50 0.075000 41.649648 41.62752893 0 0 0 0 0 0 0 0 STD5.60
2026-01-16 10:17:48 20 18.20 0.100000 41.649648 41.62752893 0 0 0 0 0 0 0 0 STD5.60
2026-01-16 10:12:45 25 17.80 0.125000 41.649648 41.62752893 0 0 0 0 0 0 0 0 STD5.60
2026-01-16 10:07:44 12 17.50 0.060000 41.649648 41.62752893 0 0 0 0 0 0 0 0 STD5.60
2026-01-16 10:02:42 19 16.20 0.095000 41.649648 41.62752893 0 0 0 0 0 0 0 0 STD5.60
2026-01-16 09:57:40 15 17.20 0.075000 41.649648 41.62752893 0 0 0 0 0 0 0 0 STD5.60
2026-01-16 09:52:37 12 17.20 0.060000 41.649648 41.62752893 0 0 0 0 0 0 0 0 STD5.60
2026-01-16 09:47:36 15 17.80 0.075000 41.649648 41.62752893 0 0 0 0 0 0 0 0 STD5.60
2026-01-16 09:42:33 14 20.10 0.070000 41.649648 41.62752893 0 0 0 0 0 0 0 0 STD5.60
2026-01-16 09:37:31 18 19.80 0.090000 41.649648 41.62752893 0 0 0 0 0 0 0 0 STD5.60
2026-01-16 09:32:29 14 19.10 0.070000 41.649648 41.62752893 0 0 0 0 0 0 0 0 STD5.60
2026-01-16 09:27:25 20 18.50 0.100000 41.649648 41.62752893 0 0 0 0 0 0 0 0 STD5.60
2026-01-16 09:22:24 14 18.90 0.070000 41.649648 41.62752893 0 0 0 0 0 0 0 0 STD5.60
2026-01-16 09:17:21 21 19.50 0.105000 41.649648 41.62752893 0 0 0 0 0 0 0 0 STD5.60
2026-01-16 09:12:19 14 18.50 0.070000 41.649648 41.62752893 0 0 0 0 0 0 0 0 STD5.60
2026-01-16 09:07:17 11 17.30 0.055000 41.649648 41.62752893 0 0 0 0 0 0 0 0 STD5.60
2026-01-16 09:02:16 8 18.20 0.040000 41.649648 41.62752893 0 0 0 0 0 0 0 0 STD5.60
2026-01-16 08:57:14 24 20.20 0.120000 41.649648 41.62752893 0 0 0 0 0 0 0 0 STD5.60
2026-01-16 08:52:12 23 18.70 0.115000 41.649648 41.62752893 0 0 0 0 0 0 0 0 STD5.60
2026-01-16 08:47:10 12 17.00 0.060000 41.649648 41.62752893 0 0 0 0 0 0 0 0 STD5.60
2026-01-16 08:42:08 16 17.80 0.080000 41.649648 41.62752893 0 0 0 0 0 0 0 0 STD5.60
2026-01-16 08:37:06 18 17.90 0.090000 41.649648 41.62752893 0 0 0 0 0 0 0 0 STD5.60
2026-01-16 08:32:04 21 18.60 0.105000 41.649648 41.62752893 0 0 0 0 0 0 0 0 STD5.60
2026-01-16 08:27:00 18 18.80 0.090000 41.649648 41.62752893 0 0 0 0 0 0 0 0 STD5.60
2026-01-16 08:21:58 20 17.20 0.100000 41.649648 41.62752893 0 0 0 0 0 0 0 0 STD5.60
2026-01-16 08:16:56 16 16.90 0.080000 41.649648 41.62752893 0 0 0 0 0 0 0 0 STD5.60
2026-01-16 08:11:54 13 17.30 0.065000 41.649648 41.62752893 0 0 0 0 0 0 0 0 STD5.60
2026-01-16 08:06:52 15 16.20 0.075000 41.649648 41.62752893 0 0 0 0 0 0 0 0 STD5.60
2026-01-16 08:01:50 10 18.50 0.050000 41.649648 41.62752893 0 0 0 0 0 0 0 0 STD5.60
2026-01-16 07:56:48 18 18.70 0.090000 41.649648 41.62752893 0 0 0 0 0 0 0 0 STD5.60
2026-01-16 07:51:47 12 17.10 0.060000 41.649648 41.62752893 0 0 0 0 0 0 0 0 STD5.60
2026-01-16 07:46:45 22 18.60 0.110000 41.649648 41.62752893 0 0 0 0 0 0 0 0 STD5.60
2026-01-16 07:41:43 17 17.60 0.085000 41.649648 41.62752893 0 0 0 0 0 0 0 0 STD5.60
2026-01-16 07:36:41 18 16.80 0.090000 41.649648 41.62752893 0 0 0 0 0 0 0 0 STD5.60
2026-01-16 07:31:39 18 17.10 0.090000 41.649648 41.62752893 0 0 0 0 0 0 0 0 STD5.60
2026-01-16 07:26:35 22 17.00 0.110000 41.649648 41.62752893 0 0 0 0 0 0 0 0 STD5.60
2026-01-16 07:21:34 21 16.00 0.105000 41.649648 41.62752893 0 0 0 0 0 0 0 0 STD5.60
2026-01-16 07:16:32 21 15.30 0.105000 41.649648 41.62752893 0 0 0 0 0 0 0 0 STD5.60
2026-01-16 07:11:29 11 16.60 0.055000 41.649648 41.62752893 0 0 0 0 0 0 0 0 STD5.60
2026-01-16 07:06:28 17 17.20 0.085000 41.649648 41.62752893 0 0 0 0 0 0 0 0 STD5.60
2026-01-16 07:01:26 18 16.70 0.090000 41.649648 41.62752893 0 0 0 0 0 0 0 0 STD5.60
2026-01-16 06:56:24 13 18.10 0.065000 41.649648 41.62752893 0 0 0 0 0 0 0 0 STD5.60
2026-01-16 06:51:22 19 19.20 0.095000 41.649648 41.62752893 0 0 0 0 0 0 0 0 STD5.60
2026-01-16 06:46:20 16 18.10 0.080000 41.649648 41.62752893 0 0 0 0 0 0 0 0 STD5.60
2026-01-16 06:41:18 20 17.00 0.100000 41.649648 41.62752893 0 0 0 0 0 0 0 0 STD5.60
2026-01-16 06:36:16 20 16.90 0.100000 41.649648 41.62752893 0 0 0 0 0 0 0 0 STD5.60
2026-01-16 06:31:14 18 16.70 0.090000 41.649648 41.62752893 0 0 0 0 0 0 0 0 STD5.60
2026-01-16 06:26:09 18 18.80 0.090000 41.649648 41.62752893 0 0 0 0 0 0 0 0 STD5.60
2026-01-16 06:21:07 19 19.60 0.095000 41.649648 41.62752893 0 0 0 0 0 0 0 0 STD5.60
2026-01-16 06:16:05 24 15.70 0.120000 41.649648 41.62752893 0 0 0 0 0 0 0 0 STD5.60
2026-01-16 06:11:03 12 15.60 0.060000 41.649648 41.62752893 0 0 0 0 0 0 0 0 STD5.60
2026-01-16 06:06:01 18 17.50 0.090000 41.649648 41.62752893 0 0 0 0 0 0 0 0 STD5.60
2026-01-16 06:01:00 16 18.30 0.080000 41.649648 41.62752893 0 0 0 0 0 0 0 0 STD5.60
2026-01-16 05:55:57 29 19.10 0.145000 41.649648 41.62752893 0 0 0 0 0 0 0 0 STD5.60
2026-01-16 05:50:55 20 19.40 0.100000 41.649648 41.62752893 0 0 0 0 0 0 0 0 STD5.60
2026-01-16 05:45:54 20 18.40 0.100000 41.649648 41.62752893 0 0 0 0 0 0 0 0 STD5.60
2026-01-16 05:40:52 12 16.50 0.060000 41.649648 41.62752893 0 0 0 0 0 0 0 0 STD5.60
2026-01-16 05:35:50 13 17.00 0.065000 41.649648 41.62752893 0 0 0 0 0 0 0 0 STD5.60
2026-01-16 05:30:48 14 17.30 0.070000 41.649648 41.62752893 0 0 0 0 0 0 0 0 STD5.60
2026-01-16 05:25:44 19 16.70 0.095000 41.649648 41.62752893 0 0 0 0 0 0 0 0 STD5.60
2026-01-16 05:20:42 16 18.20 0.080000 41.649648 41.62752893 0 0 0 0 0 0 0 0 STD5.60
2026-01-16 05:15:40 21 19.40 0.105000 41.649648 41.62752893 0 0 0 0 0 0 0 0 STD5.60
2026-01-16 05:10:39 20 16.90 0.100000 41.649648 41.62752893 0 0 0 0 0 0 0 0 STD5.60
2026-01-16 05:05:37 19 15.70 0.095000 41.649648 41.62752893 0 0 0 0 0 0 0 0 STD5.60
2026-01-16 05:00:35 23 16.10 0.115000 41.649648 41.62752893 0 0 0 0 0 0 0 0 STD5.60
2026-01-16 04:55:33 10 18.10 0.050000 41.649648 41.62752893 0 0 0 0 0 0 0 0 STD5.60
2026-01-16 04:50:31 21 18.10 0.105000 41.649648 41.62752893 0 0 0 0 0 0 0 0 STD5.60
2026-01-16 04:45:29 18 16.40 0.090000 41.649648 41.62752893 0 0 0 0 0 0 0 0 STD5.60
2026-01-16 04:40:27 21 18.50 0.105000 41.649648 41.62752893 0 0 0 0 0 0 0 0 STD5.60
2026-01-16 04:35:25 24 19.50 0.120000 41.649648 41.62752893 0 0 0 0 0 0 0 0 STD5.60
2026-01-16 04:30:23 24 17.70 0.120000 41.649648 41.62752893 0 0 0 0 0 0 0 0 STD5.60
2026-01-16 04:25:19 17 16.20 0.085000 41.649648 41.62752893 0 0 0 0 0 0 0 0 STD5.60
2026-01-16 04:20:17 13 17.00 0.065000 41.649648 41.62752893 0 0 0 0 0 0 0 0 STD5.60
2026-01-16 04:15:15 22 17.60 0.110000 41.649648 41.62752893 0 0 0 0 0 0 0 0 STD5.60
2026-01-16 04:10:13 24 16.70 0.120000 41.649648 41.62752893 0 0 0 0 0 0 0 0 STD5.60
2026-01-16 04:05:11 12 17.00 0.060000 41.649648 41.62752893 0 0 0 0 0 0 0 0 STD5.60
2026-01-16 04:00:10 16 18.70 0.080000 41.649648 41.62752893 0 0 0 0 0 0 0 0 STD5.60
2026-01-16 03:55:08 15 19.60 0.075000 41.649648 41.62752893 0 0 0 0 0 0 0 0 STD5.60
2026-01-16 03:50:06 22 19.10 0.110000 41.649648 41.62752893 0 0 0 0 0 0 0 0 STD5.60
2026-01-16 03:45:04 19 18.30 0.095000 41.649648 41.62752893 0 0 0 0 0 0 0 0 STD5.60
2026-01-16 03:40:02 9 18.60 0.045000 41.649648 41.62752893 0 0 0 0 0 0 0 0 STD5.60
2026-01-16 03:35:00 18 20.60 0.090000 41.649648 41.62752893 0 0 0 0 0 0 0 0 STD5.60
2026-01-16 03:29:58 25 20.50 0.125000 41.649648 41.62752893 0 0 0 0 0 0 0 0 STD5.60
2026-01-16 03:24:54 16 16.90 0.080000 41.649648 41.62752893 0 0 0 0 0 0 0 0 STD5.60
2026-01-16 03:19:52 11 15.30 0.055000 41.649648 41.62752893 0 0 0 0 0 0 0 0 STD5.60
2026-01-16 03:14:50 12 17.40 0.060000 41.649648 41.62752893 0 0 0 0 0 0 0 0 STD5.60
2026-01-16 03:09:48 24 19.30 0.120000 41.649648 41.62752893 0 0 0 0 0 0 0 0 STD5.60
2026-01-16 03:04:46 17 20.10 0.085000 41.649648 41.62752893 0 0 0 0 0 0 0 0 STD5.60
2026-01-16 02:59:45 20 19.80 0.100000 41.649648 41.62752893 0 0 0 0 0 0 0 0 STD5.60
2026-01-16 02:54:43 25 19.60 0.125000 41.649648 41.62752893 0 0 0 0 0 0 0 0 STD5.60
2026-01-16 02:49:41 24 18.60 0.120000 41.649648 41.62752893 0 0 0 0 0 0 0 0 STD5.60
2026-01-16 02:44:39 14 17.90 0.070000 41.649648 41.62752893 0 0 0 0 0 0 0 0 STD5.60
2026-01-16 02:39:37 19 19.80 0.095000 41.649648 41.62752893 0 0 0 0 0 0 0 0 STD5.60
2026-01-16 02:34:35 20 19.20 0.100000 41.649648 41.62752893 0 0 0 0 0 0 0 0 STD5.60
2026-01-16 02:29:34 18 18.00 0.090000 41.649648 41.62752893 0 0 0 0 0 0 0 0 STD5.60
2026-01-16 02:24:30 16 17.50 0.080000 41.649648 41.62752893 0 0 0 0 0 0 0 0 STD5.60
2026-01-16 02:19:28 17 17.10 0.085000 41.649648 41.62752893 0 0 0 0 0 0 0 0 STD5.60
2026-01-16 02:14:26 20 17.20 0.100000 41.649648 41.62752893 0 0 0 0 0 0 0 0 STD5.60
2026-01-16 02:09:24 12 17.10 0.060000 41.649648 41.62752893 0 0 0 0 0 0 0 0 STD5.60
2026-01-16 02:04:22 13 17.20 0.065000 41.649648 41.62752893 0 0 0 0 0 0 0 0 STD5.60
2026-01-16 01:59:20 16 18.30 0.080000 41.649648 41.62752893 0 0 0 0 0 0 0 0 STD5.60
2026-01-16 01:54:18 15 19.90 0.075000 41.649648 41.62752893 0 0 0 0 0 0 0 0 STD5.60
2026-01-16 01:49:16 18 19.10 0.090000 41.649648 41.62752893 0 0 0 0 0 0 0 0 STD5.60
2026-01-16 01:44:14 10 17.70 0.050000 41.649648 41.62752893 0 0 0 0 0 0 0 0 STD5.60
2026-01-16 01:39:12 26 16.70 0.130000 41.649648 41.62752893 0 0 0 0 0 0 0 0 STD5.60
2026-01-16 01:34:10 15 15.90 0.075000 41.649648 41.62752893 0 0 0 0 0 0 0 0 STD5.60
2026-01-16 01:29:08 13 16.60 0.065000 41.649648 41.62752893 0 0 0 0 0 0 0 0 STD5.60
2026-01-16 01:24:04 15 15.80 0.075000 41.649648 41.62752893 0 0 0 0 0 0 0 0 STD5.60
2026-01-16 01:19:02 9 16.20 0.045000 41.649648 41.62752893 0 0 0 0 0 0 0 0 STD5.60
2026-01-16 01:14:00 22 15.90 0.110000 41.649648 41.62752893 0 0 0 0 0 0 0 0 STD5.60
2026-01-16 01:08:58 11 15.50 0.055000 41.649648 41.62752893 0 0 0 0 0 0 0 0 STD5.60
2026-01-16 01:03:56 17 17.50 0.085000 41.649648 41.62752893 0 0 0 0 0 0 0 0 STD5.60
2026-01-16 00:58:54 14 15.90 0.070000 41.649648 41.62752893 0 0 0 0 0 0 0 0 STD5.60
2026-01-16 00:53:52 7 14.40 0.035000 41.649648 41.62752893 0 0 0 0 0 0 0 0 STD5.60
2026-01-16 00:48:49 12 18.20 0.060000 41.649648 41.62752893 0 0 0 0 0 0 0 0 STD5.60
2026-01-16 00:43:48 26 19.50 0.130000 41.649648 41.62752893 0 0 0 0 0 0 0 0 STD5.60
2026-01-16 00:38:46 18 18.00 0.090000 41.649648 41.62752893 0 0 0 0 0 0 0 0 STD5.60
2026-01-16 00:33:44 22 16.50 0.110000 41.649648 41.62752893 0 0 0 0 0 0 0 0 STD5.60
2026-01-16 00:28:42 10 15.40 0.050000 41.649648 41.62752893 0 0 0 0 0 0 0 0 STD5.60
2026-01-16 00:23:38 16 15.70 0.080000 41.649648 41.62752893 0 0 0 0 0 0 0 0 STD5.60
2026-01-16 00:18:36 21 18.00 0.105000 41.649648 41.62752893 0 0 0 0 0 0 0 0 STD5.60
2026-01-16 00:13:34 18 18.10 0.090000 41.649648 41.62752893 0 0 0 0 0 0 0 0 STD5.60
2026-01-16 00:08:32 20 15.00 0.100000 41.649648 41.62752893 0 0 0 0 0 0 0 0 STD5.60
2026-01-16 00:03:30 14 16.40 0.070000 41.649648 41.62752893 0 0 0 0 0 0 0 0 STD5.60
2026-01-15 23:58:28 13 17.50 0.065000 41.649648 41.62752893 0 0 0 0 0 0 0 0 STD5.60
2026-01-15 23:53:26 15 18.00 0.075000 41.649648 41.62752893 0 0 0 0 0 0 0 0 STD5.60
2026-01-15 23:48:25 26 18.80 0.130000 41.649648 41.62752893 0 0 0 0 0 0 0 0 STD5.60
2026-01-15 23:43:22 14 17.90 0.070000 41.649648 41.62752893 0 0 0 0 0 0 0 0 STD5.60
2026-01-15 23:38:20 16 19.10 0.080000 41.649648 41.62752893 0 0 0 0 0 0 0 0 STD5.60
2026-01-15 23:33:18 20 18.80 0.100000 41.649648 41.62752893 0 0 0 0 0 0 0 0 STD5.60
2026-01-15 23:28:17 19 19.10 0.095000 41.649648 41.62752893 0 0 0 0 0 0 0 0 STD5.60
2026-01-15 23:23:13 25 19.50 0.125000 41.649648 41.62752893 0 0 0 0 0 0 0 0 STD5.60
2026-01-15 23:18:11 29 18.40 0.145000 41.649648 41.62752893 0 0 0 0 0 0 0 0 STD5.60
2026-01-15 23:13:09 13 18.10 0.065000 41.649648 41.62752893 0 0 0 0 0 0 0 0 STD5.60
2026-01-15 23:08:08 16 17.30 0.080000 41.649648 41.62752893 0 0 0 0 0 0 0 0 STD5.60
2026-01-15 23:03:06 20 17.30 0.100000 41.649648 41.62752893 0 0 0 0 0 0 0 0 STD5.60
2026-01-15 22:58:04 18 18.80 0.090000 41.649648 41.62752893 0 0 0 0 0 0 0 0 STD5.60
2026-01-15 22:53:02 31 17.50 0.155000 41.649648 41.62752893 0 0 0 0 0 0 0 0 STD5.60
2026-01-15 22:48:00 17 17.20 0.085000 41.649648 41.62752893 0 0 0 0 0 0 0 0 STD5.60
2026-01-15 22:42:58 21 20.20 0.105000 41.649648 41.62752893 0 0 0 0 0 0 0 0 STD5.60
2026-01-15 22:37:56 22 18.10 0.110000 41.649648 41.62752893 0 0 0 0 0 0 0 0 STD5.60
2026-01-15 22:32:54 12 16.50 0.060000 41.649648 41.62752893 0 0 0 0 0 0 0 0 STD5.60
2026-01-15 22:27:53 17 16.70 0.085000 41.649648 41.62752893 0 0 0 0 0 0 0 0 STD5.60
2026-01-15 22:22:48 7 16.50 0.035000 41.649648 41.62752893 0 0 0 0 0 0 0 0 STD5.60
2026-01-15 22:17:47 19 17.30 0.095000 41.649648 41.62752893 0 0 0 0 0 0 0 0 STD5.60
2026-01-15 22:12:44 11 17.00 0.055000 41.649648 41.62752893 0 0 0 0 0 0 0 0 STD5.60
2026-01-15 22:07:42 8 17.00 0.040000 41.649648 41.62752893 0 0 0 0 0 0 0 0 STD5.60
2026-01-15 22:02:41 11 18.10 0.055000 41.649648 41.62752893 0 0 0 0 0 0 0 0 STD5.60
2026-01-15 21:57:39 19 18.90 0.095000 41.649648 41.62752893 0 0 0 0 0 0 0 0 STD5.60
2026-01-15 21:52:37 28 17.50 0.140000 41.649648 41.62752893 0 0 0 0 0 0 0 0 STD5.60
2026-01-15 21:47:35 18 17.00 0.090000 41.649648 41.62752893 0 0 0 0 0 0 0 0 STD5.60
2026-01-15 21:42:33 18 18.20 0.090000 41.649648 41.62752893 0 0 0 0 0 0 0 0 STD5.60
2026-01-15 21:37:31 20 18.30 0.100000 41.649648 41.62752893 0 0 0 0 0 0 0 0 STD5.60
2026-01-15 21:32:29 15 18.00 0.075000 41.649648 41.62752893 0 0 0 0 0 0 0 0 STD5.60
2026-01-15 21:27:27 23 17.90 0.115000 41.649648 41.62752893 0 0 0 0 0 0 0 0 STD5.60
2026-01-15 21:22:23 11 17.70 0.055000 41.649648 41.62752893 0 0 0 0 0 0 0 0 STD5.60
2026-01-15 21:17:21 18 16.20 0.090000 41.649648 41.62752893 0 0 0 0 0 0 0 0 STD5.60
2026-01-15 21:12:19 13 18.10 0.065000 41.649648 41.62752893 0 0 0 0 0 0 0 0 STD5.60
2026-01-15 21:07:18 21 16.60 0.105000 41.649648 41.62752893 0 0 0 0 0 0 0 0 STD5.60
2026-01-15 21:02:16 12 15.10 0.060000 41.649648 41.62752893 0 0 0 0 0 0 0 0 STD5.60
2026-01-15 20:57:14 9 18.30 0.045000 41.649648 41.62752893 0 0 0 0 0 0 0 0 STD5.60
Geiger Counter World Map       A real time radiation map.     Copyright 2015 All rights reserved.